Location: Ostrava
(49.8330°N, 18.2830°E)
Time: 17:52:12
(UTC+02:00)

Cosmos 2221 - Visible Passes

Search period start: 19 June 2018 00:00
Search period end: 29 June 2018 00:00
Orbit: 594 x 616 km, 82.5° (Epoch: 18 June)

Date Brightness Start Highest point End Pass type
(mag) Time Alt. Az. Time Alt. Az. Time Alt. Az.
19 Jun 5.0 00:45:20 10° WNW 00:46:55 12° W 00:48:31 10° WSW visible
19 Jun 4.5 21:42:06 10° NNE 21:44:54 16° ENE 21:47:40 10° ESE visible
19 Jun 2.8 23:18:38 10° NNW 23:22:57 63° W 23:25:43 21° S visible
20 Jun 4.0 21:54:28 10° NNE 21:58:03 24° ENE 22:01:36 10° ESE visible
20 Jun 3.5 23:31:44 10° NNW 23:35:46 39° W 23:38:40 17° SSW visible
21 Jun 3.4 22:07:05 10° N 22:11:08 36° ENE 22:14:45 12° SE visible
21 Jun 4.3 23:45:00 10° NNW 23:48:32 25° W 23:51:37 12° SW visible
22 Jun 2.7 22:19:51 10° N 22:24:09 58° ENE 22:27:43 14° SSE visible
22 Jun 4.8 23:58:33 10° NW 00:01:15 16° W 00:03:55 10° WSW visible
23 Jun 2.5 22:32:43 10° N 22:37:05 88° W 22:40:42 14° S visible
24 Jun 5.2 00:13:12 10° WNW 00:13:53 10° W 00:14:33 10° W visible
24 Jun 3.0 22:45:43 10° NNW 22:49:57 55° W 22:53:42 13° S visible
25 Jun 3.8 22:58:51 10° NNW 23:02:46 34° W 23:06:40 10° SSW visible
26 Jun 4.5 23:12:10 10° NW 23:15:31 22° W 23:18:51 10° SW visible
27 Jun 2.6 21:46:52 10° N 21:51:11 65° ENE 21:55:26 10° SSE visible
27 Jun 5.0 23:25:51 10° NW 23:28:12 14° W 23:30:33 10° WSW visible
28 Jun 2.6 21:59:46 10° NNW 22:04:07 79° W 22:08:23 10° S visible
